Welcome to the New NWS' Forecast!
Most changes are behind the scenes, but click here for differences you might notice.

Regional Weather Roundup (RWR)

Issued by Gray - Portland, ME (GYX)

                            
000
ASUS41 KGYX 192010
RWRGYX
WEATHER ROUNDUP FOR MAINE AND NEW HAMPSHIRE
NATIONAL WEATHER SERVICE GRAY ME
300 PM EST MON NOV 19 2018

MEZ002-005-006-010-012-015-018-020-021-024-026-027-029-192100-
MAINE
  
CITY           SKY/WX    TMP DP  RH WIND       PRES   REMARKS
PORTLAND       NOT AVBL                                               
BAR HARBOR     MIX PCPN  33  30  88 N3        30.06F                  
WISCASSET      NOT AVBL                                               
FRYEBURG       FAIR      33  25  72 E6        30.02F                  
AUGUSTA        NOT AVBL                                               
BANGOR         NOT AVBL                                               
GREENVILLE       N/A     25  19  78 SE3       29.96S                  
MILLINOCKET    NOT AVBL                                               
HOULTON        CLOUDY    28  23  81 S7        30.03F                  
PRESQUE ISLE   NOT AVBL                                               
FRENCHVILLE    LGT SNOW  22  15  75 E6        29.97F                  
CARIBOU        CLOUDY    26  17  68 S8        30.00F                  
$$

NHZ002-005-008-009-011-012-014-192100-
NEW HAMPSHIRE
  
CITY           SKY/WX    TMP DP  RH WIND       PRES   REMARKS
ROCHESTER      NOT AVBL                                               
NASHUA         CLOUDY    36  35  96 CALM      30.06F                  
MANCHESTER     NOT AVBL                                               
CONCORD        NOT AVBL                                               
PLYMOUTH       CLOUDY    34  29  82 CALM      30.04S                  
BERLIN         NOT AVBL                                               
WHITEFIELD     NOT AVBL                                               
JAFFREY        NOT AVBL                                               
KEENE          CLOUDY    37  33  85 CALM      30.04F                  
LEBANON        NOT AVBL                                               
MT WASHINGTON  FOG       16  16 100 W36         N/A  VSB 1/8 WCI  -6  
$$

VTZ005-007-008-192100-
VERMONT
  
CITY           SKY/WX    TMP DP  RH WIND       PRES   REMARKS
ST JOHNSBURY     N/A     38  30  73 MISG      29.99F                  
BURLINGTON     PTSUNNY   41  28  60 CALM      30.03S                  
$$

MAZ007-012-024-CTZ003-RIZ002-NYZ038-NYZ072-192100-
SOUTHERN NEW ENGLAND AND NY
  
CITY           SKY/WX    TMP DP  RH WIND       PRES   REMARKS
BOSTON         CLOUDY    40  36  86 NW6       30.05F                  
WORCESTER      CLOUDY    37  36  96 NW5       30.02S FOG              
$$

ANZ081-ANZ082-ANZ150-NHZ014-MEZ023>029-192100-
COASTAL MARINE OBSERVATIONS
  
STATION/POSITION TIME  TEMP    WIND        PRES    WAVE
                       AIR SEA DIR/SP/G            HT/PER
                 (UTC) (F)     (DEG/KT/KT) (MB)    (FT/S)
MOUNT DESERT ROC 1900   44     170/ 11/ 12 1017.8F
MATINICUS ROCK   1900   42     340/  4/  6 1017.1F
ISLE OF SHOALS   1900   37     320/  9/ 10 1017.5F
CASHES LEDGE BUO 1850   45 50              1017.0    2/ 3
$$

.............KEY..............
   WCI - WIND CHILL
   TC  - TEMPERATURE IN CELSIUS
   VSB - VISIBILITY IN MILES
   HX  - HEAT INDEX
   FAIR- INDICATES FEW OR NO CLOUDS BELOW 12,000 FT, WITH NO 
         SIGNIFICANT WEATHER AND/OR OBSTRUCTIONS TO VISIBILITY.